This is the latest recevied weather packets stored in our database for station/object DB5WY-13. If no packets are shown the sender has not sent any weather packets the latest 10 day(s).
| Time | Temp. | Humidity | Pressure | Rain* | Wind** | Luminosity | Snow |
|---|---|---|---|---|---|---|---|
| 1777229437 | 8.89° C | 58% | 1024.3 hPa | 0 mm | - | - | - |
| 1777228837 | 9.44° C | 57% | 1024.3 hPa | 0 mm | - | - | - |
| 1777228237 | 10° C | 55% | 1024 hPa | 0 mm | - | - | - |
| 1777227637 | 10.56° C | 55% | 1024.1 hPa | 0 mm | - | - | - |
| 1777227037 | 10.56° C | 54% | 1023.9 hPa | 0 mm | - | - | - |
| 1777226437 | 11.11° C | 53% | 1023.9 hPa | 0 mm | - | - | - |
| 1777225837 | 11.67° C | 52% | 1023.8 hPa | 0 mm | - | - | - |
| 1777225237 | 12.22° C | 51% | 1023.7 hPa | 0 mm | - | - | - |
| 1777224637 | 12.78° C | 51% | 1023.8 hPa | 0 mm | - | - | - |
| 1777224037 | 12.78° C | 50% | 1023.7 hPa | 0 mm | - | - | - |
| 1777223437 | 12.78° C | 50% | 1023.8 hPa | 0 mm | - | - | - |
| 1777222837 | 13.33° C | 50% | 1023.8 hPa | 0 mm | - | - | - |
| 1777222237 | 13.33° C | 50% | 1023.8 hPa | 0 mm | - | - | - |
| 1777221637 | 13.33° C | 49% | 1024 hPa | 0 mm | - | - | - |
| 1777221037 | 13.89° C | 49% | 1024.1 hPa | 0 mm | - | - | - |
| 1777220437 | 13.89° C | 48% | 1024.1 hPa | 0 mm | - | - | - |
| 1777219837 | 13.89° C | 48% | 1024.1 hPa | 0 mm | - | - | - |
| 1777219237 | 14.44° C | 47% | 1024.3 hPa | 0 mm | - | - | - |
| 1777218637 | 14.44° C | 47% | 1024.2 hPa | 0 mm | - | - | - |
| 1777218037 | 14.44° C | 48% | 1024.1 hPa | 0 mm | - | - | - |
| 1777217437 | 13.89° C | 48% | 1024.2 hPa | 0 mm | - | - | - |
| 1777216837 | 14.44° C | 47% | 1024.1 hPa | 0 mm | - | - | - |
| 1777216237 | 14.44° C | 46% | 1024.1 hPa | 0 mm | - | - | - |
| 1777215637 | 15° C | 46% | 1024.2 hPa | 0 mm | - | - | - |
| 1777215037 | 15° C | 45% | 1024.2 hPa | 0 mm | - | - | - |
* Rain latest hour (hover to see other rain measurements)
** Current wind speed in m/s (hover to see current wind gust speed)